{"data":{"norad_id":51852,"epoch":"2026-05-24T23:06:02.179872Z","epoch_age_seconds":82290,"freshness":"FRESH","line1":"1 51852U 22022A   26144.96252523  .00000591  00000+0  55209-4 0  9999","line2":"2 51852  53.2164  36.7178 0001531  93.7551 266.3616 15.08842784233270","mean_motion":15.08842784,"eccentricity":0.0001531,"inclination_deg":53.2164,"raan_deg":36.7178,"arg_perigee_deg":93.7551,"mean_anomaly_deg":266.3616,"bstar":5.5209e-5,"rev_number":23327,"period_min":95.437378583772,"perigee_km":538.67575321821,"apogee_km":540.79400558768,"semimajor_km":6917.8718794029,"source":"CELESTRAK","updated_at":"2026-05-25T13:38:16.959427Z"}}